Weather History for KFSD - November, 2013

Change the Weather History Date:

Thursday, November 14, 2013

  Actual Average Record
Temperature  
Mean Temperature 42 °F 34 °F  
Max Temperature 57 °F 43 °F 71 °F (1953)
Min Temperature 26 °F 24 °F -17 °F (1959)
Degree Days  
Heating Degree Days 23 31  
Month to date heating degree days 415 388  
Since 1 July heating degree days 1050 1128  
Cooling Degree Days 0 0  
Month to date cooling degree days 0 0  
Year to date cooling degree days 787 690  
Moisture  
Dew Point 32 °F    
Average Humidity 74    
Maximum Humidity 100    
Minimum Humidity 47    
Precipitation  
Precipitation T in 0.05 in 1.33 in (1926)
Month to date precipitation 0.44 0.64  
Year to date precipitation 24.64 24.97  
Snow  
Snow 0.00 in 0.20 in 4.50 in (1947)
Month to date snowfall 6.8 2.5  
Since 1 July snowfall 7.2 3.8  
Since 1 September snowfall 7.2 3.8  
Snow Depth 0.00 in    
Sea Level Pressure  
Sea Level Pressure 29.90 in    
Wind  
Wind Speed 5 mph (West)    
Max Wind Speed 16 mph    
Max Gust Speed 23 mph    
Visibility 10 miles    
Events      
T = Trace of Precipitation, MM = Missing Value Source: NWS Daily Summary

Daily Weather History Graph

Daily Weather History Graph

Search for Another Location

Airport or City:

Trip Planner

Search our weather history database for the weather conditions in past years. The results will help you decide how hot, cold, wet, or windy it might be!

Date:

Astronomy

Nov. 14, 2013 Rise Set
Actual Time 7:19 AM CST 5:02 PM CST
Civil Twilight 6:49 AM CST 5:33 PM CST
Nautical Twilight 6:14 AM CST 6:08 PM CST
Astronomical Twilight 5:40 AM CST 6:41 PM CST
Moon 3:28 PM CST (11/14) 4:11 AM CST (11/14)
Length of Visible Light 10h 44m
Length of Day
9h 42m
Waxing Gibbous, 92% of the Moon is Illuminated
Nov 14
Waxing Gibbous
Nov 17
Full
Nov 25
Last Quarter
Dec 2
New
Dec 9
First Quarter

Hourly Weather History & Observations

Time (CST) Temp. Windchill Dew Point Humidity Pressure Visibility Wind Dir Wind Speed Gust Speed Precip Events Conditions
12:56 AM 33.1 °F 28.7 °F 28.9 °F 85% 29.91 in 10.0 mi WNW 4.6 mph - N/A   Clear
1:56 AM 30.0 °F 25.2 °F 27.0 °F 88% 29.90 in 10.0 mi South 4.6 mph - N/A   Clear
2:56 AM 30.9 °F - 27.0 °F 85% 29.89 in 10.0 mi Calm Calm - N/A   Partly Cloudy
3:56 AM 33.1 °F - 28.9 °F 85% 29.89 in 10.0 mi Calm Calm - N/A   Partly Cloudy
4:56 AM 34.0 °F 29.8 °F 30.0 °F 85% 29.91 in 10.0 mi West 4.6 mph - N/A   Overcast
5:56 AM 36.0 °F 33.3 °F 32.0 °F 86% 29.91 in 10.0 mi SSW 3.5 mph - N/A   Overcast
6:56 AM 37.0 °F 32.4 °F 33.1 °F 86% 29.91 in 10.0 mi Variable 5.8 mph - 0.00 in   Overcast
7:56 AM 39.0 °F 36.8 °F 36.0 °F 89% 29.93 in 10.0 mi WSW 3.5 mph - 0.00 in   Overcast
8:56 AM 41.0 °F 38.0 °F 37.0 °F 86% 29.94 in 10.0 mi SW 4.6 mph - 0.00 in   Overcast
9:56 AM 44.1 °F 40.8 °F 37.9 °F 79% 29.94 in 10.0 mi WSW 5.8 mph - N/A   Mostly Cloudy
10:56 AM 45.0 °F 41.2 °F 37.9 °F 76% 29.93 in 10.0 mi West 6.9 mph - N/A   Mostly Cloudy
11:56 AM 53.1 °F - 37.9 °F 57% 29.90 in 10.0 mi West 11.5 mph - N/A   Scattered Clouds
12:56 PM 55.9 °F - 37.0 °F 49% 29.88 in 10.0 mi WNW 12.7 mph 20.7 mph N/A   Partly Cloudy
1:56 PM 55.9 °F - 36.0 °F 47% 29.87 in 10.0 mi WNW 11.5 mph - N/A   Partly Cloudy
2:56 PM 55.0 °F - 36.0 °F 49% 29.86 in 10.0 mi NW 15.0 mph - N/A   Partly Cloudy
3:56 PM 53.1 °F - 36.0 °F 52% 29.86 in 10.0 mi NW 10.4 mph - N/A   Partly Cloudy
4:56 PM 46.0 °F 43.9 °F 35.1 °F 66% 29.87 in 10.0 mi WNW 4.6 mph - N/A   Scattered Clouds
5:56 PM 41.0 °F 35.2 °F 34.0 °F 76% 29.88 in 10.0 mi NW 9.2 mph - N/A   Partly Cloudy
6:56 PM 37.9 °F 33.5 °F 32.0 °F 79% 29.89 in 10.0 mi West 5.8 mph - N/A   Scattered Clouds
7:56 PM 35.1 °F - 32.0 °F 89% 29.90 in 10.0 mi Calm Calm - N/A   Clear
8:56 PM 28.9 °F - 28.0 °F 96% 29.90 in 10.0 mi Calm Calm - N/A   Partly Cloudy
9:56 PM 28.9 °F - 27.0 °F 92% 29.89 in 10.0 mi Calm Calm - N/A   Clear
10:56 PM 30.0 °F - 27.0 °F 88% 29.88 in 10.0 mi Calm Calm - N/A   Clear
11:56 PM 27.0 °F - 25.0 °F 92% 29.88 in 10.0 mi Calm Calm - N/A   Clear